Location: Eaton Estates
(41.3089°N, 82.0057°W)
Time: 11:37:38
(UTC+00:00)

Lacrosse 5 rocket - Pass Details

Date: 17 June 2021
Orbit: 459 x 634 km, 57.0° (Epoch: 26 July)

Event Time Altitude Azimuth Distance (km) Brightness Sun altitude
Rises 03:09:55 0° 225° (SW) 2,551 4.6 -17.7°
Reaches altitude 10° 03:12:07 10° 227° (SW) 1,651 3.6 -17.9°
Maximum altitude 03:15:48 82° 313° (NW) 478 1.0 -18.3°
Drops below altitude 10° 03:19:24 10° 43° (NE) 1,613 3.9 -18.7°
Sets 03:21:31 0° 45° (NE) 2,486 4.9 -18.9°
